Tracking 20083 objects as of 9-Dec-2019
HD Live streaming from Space Station
objects crossing your sky now

SL-12 R/B(2)

Track SL-12 R/B(2) now!


NORAD ID: 29673
Int'l Code: 2006-062D
Perigee: 19,059.4 km
Apogee: 19,166.4 km
Inclination: 65.0 °
Period: 674.8 minutes
Semi major axis: 25483 km
RCS: 0.7844 m2 (medium)
Launch date: December 25, 2006
Source: Commonwealth of Independent States (former USSR) (CIS)
Launch site: TYURATAM MISSILE AND SPACE COMPLEX (TTMTR)

Note: This is a ROCKET BODY
aabbcc
Your satellite tracking list
Your tracking list is empty




NASA's NSSDC Master Catalog

Two Line Element Set (TLE):
1 29673U 06062D   19342.70161405 -.00000025 +00000-0 +00000-0 0  9992
2 29673 065.0376 273.8261 0021008 196.1815 345.6446 02.13404899101146
Source of the keplerian elements: AFSPC